Voltar ao catálogo

EXPRESS AT2

AtivoComunicaçõesGEO
NORAD 39613·PAYLOAD·🇷🇺 Russia

Lançado Mar 15, 2014 de Baikonur Cosmodrome

Loading…

TLE

AtualizadoSource: Space-Track

Época: Sep 14, 2026, 14:04 UTC

1 39613U 14010B   26257.58619440  .00000071  00000-0  00000-0 0  9995
2 39613   0.0272 256.6516 0000406 181.6965 182.2630  1.00271067 45399

Acompanhe EXPRESS AT2 em tempo real com AllMySat

Download on the App Store